TimeCDT,TemperatureF,Dew PointF,Humidity,Sea Level PressureIn,VisibilityMPH,Wind Direction,Wind SpeedMPH,Gust SpeedMPH,PrecipitationIn,Events,Conditions,WindDirDegrees,DateUTC
12:15 AM,54.1,38.5,55,29.98,10.0,South,3.5,-,N/A,,Overcast,170,2012-11-01 05:15:00
12:35 AM,53.6,38.5,57,29.98,10.0,Calm,Calm,-,N/A,,Overcast,0,2012-11-01 05:35:00
12:55 AM,53.1,38.3,57,29.97,10.0,Calm,Calm,-,N/A,,Scattered Clouds,0,2012-11-01 05:55:00
1:15 AM,51.6,37.9,60,29.96,10.0,South,3.5,-,N/A,,Clear,170,2012-11-01 06:15:00
1:35 AM,50.9,37.9,61,29.96,10.0,Calm,Calm,-,N/A,,Clear,0,2012-11-01 06:35:00
1:55 AM,46.9,36.7,68,29.96,10.0,Calm,Calm,-,N/A,,Clear,0,2012-11-01 06:55:00
2:15 AM,46.0,36.5,69,29.96,10.0,Calm,Calm,-,N/A,,Clear,0,2012-11-01 07:15:00
2:35 AM,43.3,35.4,74,29.96,10.0,Calm,Calm,-,N/A,,Clear,0,2012-11-01 07:35:00
3:15 AM,40.3,34.3,79,29.96,10.0,NW,3.5,-,N/A,,Clear,320,2012-11-01 08:15:00
3:35 AM,40.5,35.2,82,29.96,10.0,NW,6.9,-,N/A,,Clear,320,2012-11-01 08:35:00
3:55 AM,43.5,37.2,78,29.96,10.0,NW,13.8,-,N/A,,Clear,320,2012-11-01 08:55:00
4:15 AM,45.5,37.2,73,29.96,10.0,NW,10.4,-,N/A,,Clear,320,2012-11-01 09:15:00
4:35 AM,44.6,36.9,74,29.96,10.0,NW,12.7,-,N/A,,Clear,320,2012-11-01 09:35:00
4:55 AM,43.9,37.4,78,29.96,10.0,NW,12.7,-,N/A,,Clear,320,2012-11-01 09:55:00
5:15 AM,44.8,37.9,77,29.96,10.0,NNW,11.5,16.1,N/A,,Clear,330,2012-11-01 10:15:00
5:35 AM,45.1,38.5,77,29.97,10.0,NW,15.0,-,N/A,,Clear,320,2012-11-01 10:35:00
5:55 AM,44.8,38.7,79,29.97,10.0,NNW,16.1,-,N/A,,Clear,330,2012-11-01 10:55:00
6:15 AM,44.6,38.8,80,29.98,10.0,NNW,16.1,23.0,N/A,,Clear,330,2012-11-01 11:15:00
6:35 AM,43.9,38.8,82,29.98,10.0,NNW,12.7,17.3,N/A,,Clear,340,2012-11-01 11:35:00
7:35 AM,42.8,39.6,88,29.99,7.0,NNW,17.3,24.2,N/A,,Overcast,340,2012-11-01 12:35:00
7:55 AM,43.2,40.1,89,30.00,5.0,NNW,17.3,25.3,N/A,,Overcast,340,2012-11-01 12:55:00
8:35 AM,43.7,40.3,88,30.02,4.0,NNW,12.7,18.4,N/A,,Overcast,340,2012-11-01 13:35:00
8:55 AM,43.7,40.3,88,30.03,3.0,NNW,15.0,21.9,N/A,,Overcast,340,2012-11-01 13:55:00
9:15 AM,43.7,39.7,86,30.03,4.0,North,16.1,23.0,N/A,,Overcast,350,2012-11-01 14:15:00
9:35 AM,43.3,39.2,85,30.04,4.0,NNW,12.7,20.7,N/A,,Overcast,340,2012-11-01 14:35:00
10:15 AM,42.8,38.3,84,30.05,5.0,North,12.7,18.4,N/A,,Haze,350,2012-11-01 15:15:00
10:35 AM,42.8,38.3,84,30.06,5.0,North,6.9,-,N/A,,Haze,360,2012-11-01 15:35:00
10:55 AM,43.2,38.3,83,30.06,5.0,North,12.7,18.4,N/A,,Haze,360,2012-11-01 15:55:00
11:15 AM,43.7,38.5,82,30.06,5.0,North,10.4,-,N/A,,Haze,360,2012-11-01 16:15:00
11:35 AM,43.3,38.5,83,30.06,5.0,NNW,10.4,-,N/A,,Overcast,340,2012-11-01 16:35:00
11:55 AM,44.2,38.8,81,30.06,5.0,North,8.1,-,N/A,,Haze,360,2012-11-01 16:55:00
12:15 PM,44.8,38.8,80,30.06,5.0,North,5.8,-,N/A,,Haze,360,2012-11-01 17:15:00
12:35 PM,45.1,39.2,80,30.05,5.0,North,3.5,-,N/A,,Haze,10,2012-11-01 17:35:00
1:15 PM,46.4,39.6,77,30.03,5.0,North,5.8,-,N/A,,Haze,350,2012-11-01 18:15:00
1:35 PM,47.1,39.9,76,30.02,5.0,NE,10.4,-,N/A,,Haze,40,2012-11-01 18:35:00
1:55 PM,47.1,39.7,76,30.01,5.0,NNE,9.2,-,N/A,,Haze,30,2012-11-01 18:55:00
2:15 PM,47.7,40.1,75,30.01,7.0,NNE,5.8,-,N/A,,Overcast,30,2012-11-01 19:15:00
2:35 PM,47.3,39.7,75,30.01,7.0,NNE,6.9,-,N/A,,Overcast,20,2012-11-01 19:35:00
3:15 PM,46.8,39.4,75,29.99,7.0,NNE,6.9,-,N/A,,Overcast,30,2012-11-01 20:15:00
3:35 PM,47.3,39.6,74,30.00,7.0,NE,6.9,-,N/A,,Overcast,40,2012-11-01 20:35:00
3:55 PM,46.9,39.6,76,30.00,7.0,NNE,4.6,-,N/A,,Overcast,20,2012-11-01 20:55:00
4:15 PM,46.4,39.4,77,29.99,7.0,North,4.6,-,N/A,,Mostly Cloudy,10,2012-11-01 21:15:00
4:35 PM,46.8,39.6,76,29.99,7.0,NE,3.5,-,N/A,,Clear,40,2012-11-01 21:35:00
5:15 PM,47.5,39.6,74,29.98,7.0,ENE,5.8,-,N/A,,Clear,60,2012-11-01 22:15:00
5:35 PM,46.9,39.4,75,29.98,7.0,East,5.8,-,N/A,,Clear,80,2012-11-01 22:35:00
5:55 PM,45.7,39.2,78,29.97,7.0,ENE,5.8,-,N/A,,Clear,70,2012-11-01 22:55:00
6:15 PM,44.6,38.3,79,29.97,7.0,ENE,3.5,-,N/A,,Clear,70,2012-11-01 23:15:00
6:35 PM,42.8,37.4,81,29.97,5.0,ENE,4.6,-,N/A,,Haze,70,2012-11-01 23:35:00
6:55 PM,41.2,36.5,83,29.97,5.0,East,5.8,-,N/A,,Clear,80,2012-11-01 23:55:00
7:15 PM,40.1,36.3,86,29.97,7.0,ENE,5.8,-,N/A,,Clear,60,2012-11-02 00:15:00
7:35 PM,40.3,36.9,88,29.97,5.0,ENE,6.9,-,N/A,,Clear,60,2012-11-02 00:35:00
7:55 PM,40.8,37.6,88,29.97,5.0,ENE,6.9,-,N/A,,Clear,70,2012-11-02 00:55:00
8:15 PM,41.4,38.3,89,29.97,5.0,ENE,10.4,-,N/A,,Mostly Cloudy,70,2012-11-02 01:15:00
8:35 PM,41.5,38.7,89,29.97,4.0,East,6.9,-,N/A,,Overcast,80,2012-11-02 01:35:00
8:55 PM,41.0,38.3,90,29.96,4.0,East,10.4,-,N/A,,Overcast,80,2012-11-02 01:55:00
9:15 PM,41.2,38.5,90,29.96,4.0,ESE,6.9,-,N/A,,Overcast,110,2012-11-02 02:15:00
9:35 PM,41.0,38.5,91,29.96,2.5,ESE,6.9,-,N/A,,Overcast,110,2012-11-02 02:35:00
9:55 PM,41.0,38.5,91,29.96,2.5,ESE,5.8,-,N/A,,Overcast,110,2012-11-02 02:55:00
10:15 PM,39.9,37.4,91,29.96,3.0,ESE,5.8,-,N/A,,Overcast,120,2012-11-02 03:15:00
10:35 PM,39.6,37.0,91,29.96,3.0,ESE,5.8,-,N/A,,Overcast,120,2012-11-02 03:35:00
10:55 PM,39.2,36.9,91,29.96,3.0,ESE,5.8,-,N/A,,Overcast,120,2012-11-02 03:55:00
11:15 PM,38.5,36.5,93,29.96,1.5,ESE,4.6,-,N/A,,Overcast,110,2012-11-02 04:15:00
11:35 PM,38.3,36.3,93,29.96,1.2,East,6.9,-,N/A,,Overcast,90,2012-11-02 04:35:00
11:55 PM,37.8,36.0,93,29.96,1.0,East,3.5,-,N/A,,Overcast,100,2012-11-02 04:55:00